This is the latest recevied weather packets stored in our database for station/object AA0PB. If no packets are shown the sender has not sent any weather packets the latest 10 day(s).
| Time | Temp. | Humidity | Pressure | Rain* | Wind** | Luminosity | Snow |
|---|---|---|---|---|---|---|---|
| 1777893285 | 13.89° C | 85% | 1010.8 hPa | 0 mm | - | 0 W/m² | - |
| 1777892982 | 13.89° C | 85% | 1010.6 hPa | 0 mm | - | 0 W/m² | - |
| 1777892679 | 13.89° C | 84% | 1010.5 hPa | 0 mm | - | 0 W/m² | - |
| 1777892375 | 14.44° C | 83% | 1010.6 hPa | 0 mm | - | 0 W/m² | - |
| 1777892071 | 14.44° C | 83% | 1010.5 hPa | 0 mm | - | 0 W/m² | - |
| 1777891768 | 13.89° C | 84% | 1010 hPa | 0 mm | - | 0 W/m² | - |
| 1777891465 | 14.44° C | 84% | 1010.4 hPa | 0 mm | - | 0 W/m² | - |
| 1777891160 | 14.44° C | 83% | 1010 hPa | 0 mm | - | 0 W/m² | - |
| 1777890855 | 14.44° C | 83% | 1010.2 hPa | 0 mm | - | 0 W/m² | - |
| 1777890551 | 14.44° C | 83% | 1010.1 hPa | 0 mm | - | 0 W/m² | - |
| 1777890247 | 14.44° C | 84% | 1009.9 hPa | 0 mm | - | 0 W/m² | - |
| 1777889943 | 14.44° C | 83% | 1009.8 hPa | 0 mm | - | 0 W/m² | - |
| 1777889641 | 15° C | 82% | 1009.7 hPa | 0 mm | - | 0 W/m² | - |
| 1777889338 | 15° C | 81% | 1009.6 hPa | 0 mm | - | 0 W/m² | - |
| 1777889035 | 15.56° C | 79% | 1009.7 hPa | 0 mm | - | 0 W/m² | - |
| 1777888733 | 15.56° C | 78% | 1009.6 hPa | 0 mm | - | 0 W/m² | - |
| 1777888429 | 16.11° C | 77% | 1009.6 hPa | 0 mm | - | 0 W/m² | - |
| 1777888125 | 16.11° C | 76% | 1009.6 hPa | 0 mm | - | 0 W/m² | - |
| 1777887823 | 16.11° C | 76% | 1009.4 hPa | 0 mm | - | 0 W/m² | - |
| 1777887519 | 16.11° C | 76% | 1009.4 hPa | 0 mm | - | 0 W/m² | - |
| 1777887215 | 16.67° C | 76% | 1009.3 hPa | 0 mm | - | 0 W/m² | - |
| 1777886911 | 16.11° C | 76% | 1009.5 hPa | 0 mm | - | 0 W/m² | - |
| 1777886606 | 16.11° C | 77% | 1009.4 hPa | 0 mm | - | 0 W/m² | - |
| 1777886304 | 16.11° C | 77% | 1009.4 hPa | 0 mm | - | 0 W/m² | - |
| 1777886002 | 16.11° C | 76% | 1009.3 hPa | 0 mm | - | 0 W/m² | - |
* Rain latest hour (hover to see other rain measurements)
** Current wind speed in m/s (hover to see current wind gust speed)